Weather History for Spokane, WA

Change the Weather History Date:

Sunday, October 7, 2012

  Actual Average Record
Temperature  
Mean Temperature 50 °F 51 °F  
Max Temperature 68 °F 63 °F 86 °F (1980)
Min Temperature 32 °F 40 °F 24 °F (1990)
Degree Days  
Heating Degree Days 15 14  
Month to date heating degree days 99 87  
Since 1 July heating degree days 201 335  
Cooling Degree Days 0 0  
Month to date cooling degree days 0 0  
Year to date cooling degree days 535 449  
Moisture  
Dew Point 23 °F    
Average Humidity 41    
Maximum Humidity 64    
Minimum Humidity 18    
Precipitation  
Precipitation 0.00 in 0.03 in 0.80 in (1905)
Month to date precipitation 0.00 0.17  
Year to date precipitation 13.96 10.95  
Snow  
Snow 0.00 in 0.00 in T in (1985)
Month to date snowfall 0.0 0.0  
Since 1 July snowfall 0.0 0.0  
Since 1 September snowfall 0.0 0.0  
Snow Depth 0.00 in    
Sea Level Pressure  
Sea Level Pressure 30.11 in    
Wind  
Wind Speed 4 mph (SW)    
Max Wind Speed 13 mph    
Max Gust Speed 16 mph    
Visibility 10 miles    
Events      
T = Trace of Precipitation, MM = Missing Value Source: NWS Daily Summary

Daily Weather History Graph

Daily Weather History Graph

Search for Another Location

Airport:

Trip Planner

Search our weather history database for the weather conditions in past years. The results will help you decide how hot, cold, wet, or windy it might be!

Date:

Astronomy

Oct. 07, 2012 Rise Set
Actual Time 6:58 AM PDT 6:16 PM PDT
Civil Twilight 6:27 AM PDT 6:47 PM PDT
Nautical Twilight 5:51 AM PDT 7:22 PM PDT
Astronomical Twilight 5:15 AM PDT 7:58 PM PDT
Moon 11:16 PM PDT (10/7) 1:56 PM PDT (10/7)
Length of Visible Light 12h 19m
Length of Day
11h 17m
Waning Gibbous, 55% of the Moon is Illuminated
Oct 7
Waning Gibbous
Oct 8
Last Quarter
Oct 15
New
Oct 21
First Quarter
Oct 29
Full

Hourly Weather History & Observations

Time (PDT) Temp. Windchill Dew Point Humidity Pressure Visibility Wind Dir Wind Speed Gust Speed Precip Events Conditions
12:53 AM 41.0 °F 39.0 °F 21.9 °F 47% 30.21 in 10.0 mi South 3.5 mph - N/A   Clear
1:53 AM 37.9 °F - 21.0 °F 51% 30.20 in 10.0 mi Calm Calm - N/A   Clear
2:53 AM 37.0 °F - 19.0 °F 48% 30.20 in 10.0 mi Calm Calm - N/A   Clear
3:53 AM 37.0 °F - 21.9 °F 54% 30.19 in 10.0 mi Calm Calm - N/A   Clear
4:53 AM 37.0 °F - 26.1 °F 65% 30.19 in 10.0 mi Calm Calm - N/A   Clear
5:53 AM 34.0 °F - 21.0 °F 59% 30.19 in 10.0 mi Calm Calm - N/A   Partly Cloudy
6:53 AM 39.9 °F 35.8 °F 25.0 °F 55% 30.17 in 10.0 mi SSE 5.8 mph - N/A   Mostly Cloudy
7:53 AM 37.9 °F 35.5 °F 25.0 °F 60% 30.20 in 10.0 mi ENE 3.5 mph - N/A   Scattered Clouds
8:53 AM 42.1 °F - 26.1 °F 53% 30.20 in 10.0 mi Calm Calm - N/A   Partly Cloudy
9:53 AM 48.9 °F - 26.1 °F 41% 30.19 in 10.0 mi ENE 4.6 mph - N/A   Partly Cloudy
10:53 AM 55.0 °F - 24.1 °F 30% 30.16 in 10.0 mi SSW 5.8 mph - N/A   Partly Cloudy
11:53 AM 61.0 °F - 21.9 °F 22% 30.14 in 10.0 mi Calm Calm - N/A   Partly Cloudy
12:53 PM 64.0 °F - 21.0 °F 19% 30.12 in 10.0 mi West 4.6 mph - N/A   Partly Cloudy
1:53 PM 66.0 °F - 21.0 °F 18% 30.09 in 10.0 mi WSW 9.2 mph - N/A   Partly Cloudy
2:53 PM 66.9 °F - 21.9 °F 18% 30.07 in 10.0 mi West 6.9 mph - N/A   Mostly Cloudy
3:53 PM 66.9 °F - 21.9 °F 18% 30.04 in 10.0 mi WSW 9.2 mph - N/A   Scattered Clouds
4:53 PM 66.0 °F - 21.9 °F 19% 30.02 in 10.0 mi WSW 8.1 mph - N/A   Scattered Clouds
5:53 PM 64.0 °F - 23.0 °F 21% 30.01 in 10.0 mi WSW 6.9 mph - N/A   Scattered Clouds
6:53 PM 59.0 °F - 24.1 °F 26% 30.01 in 10.0 mi SSW 3.5 mph - N/A   Scattered Clouds
7:53 PM 55.9 °F - 23.0 °F 28% 30.02 in 10.0 mi SSW 6.9 mph - N/A   Scattered Clouds
8:53 PM 50.0 °F - 21.9 °F 33% 30.02 in 10.0 mi SW 5.8 mph - N/A   Scattered Clouds
9:53 PM 53.1 °F - 23.0 °F 31% 30.00 in 10.0 mi SW 6.9 mph - N/A   Partly Cloudy
10:53 PM 50.0 °F - 23.0 °F 35% 29.99 in 10.0 mi SW 3.5 mph - N/A   Partly Cloudy
11:53 PM 46.9 °F - 21.9 °F 37% 29.98 in 10.0 mi SSE 5.8 mph - N/A   Partly Cloudy